TimeMDT,TemperatureF,Dew PointF,Humidity,Sea Level PressureIn,VisibilityMPH,Wind Direction,Wind SpeedMPH,Gust SpeedMPH,PrecipitationIn,Events,Conditions,WindDirDegrees,DateUTC
12:40 AM,48.2,28.4,46,30.22,3.0,Calm,Calm,-,N/A,,Haze,0,2012-09-21 06:40:00
12:51 AM,48.0,28.0,46,30.14,3.0,Calm,Calm,-,N/A,,Haze,0,2012-09-21 06:51:00
1:19 AM,48.2,28.4,46,30.22,2.5,Calm,Calm,-,N/A,,Haze,0,2012-09-21 07:19:00
1:51 AM,46.9,28.0,48,30.12,3.0,Calm,Calm,-,N/A,,Haze,0,2012-09-21 07:51:00
2:51 AM,44.1,28.0,53,30.13,3.0,ENE,3.5,-,N/A,,Haze,60,2012-09-21 08:51:00
3:41 AM,42.8,28.4,57,30.22,2.5,Calm,Calm,-,N/A,,Haze,0,2012-09-21 09:41:00
3:51 AM,43.0,28.9,58,30.11,2.5,NE,4.6,-,N/A,,Haze,50,2012-09-21 09:51:00
4:28 AM,42.8,28.4,57,30.21,3.0,Calm,Calm,-,N/A,,Haze,0,2012-09-21 10:28:00
4:51 AM,42.1,28.9,60,30.11,3.0,Calm,Calm,-,N/A,,Haze,0,2012-09-21 10:51:00
5:51 AM,39.0,28.9,67,30.12,3.0,Calm,Calm,-,N/A,,Haze,0,2012-09-21 11:51:00
6:37 AM,39.2,30.2,70,30.20,3.0,Calm,Calm,-,N/A,,Haze,0,2012-09-21 12:37:00
6:51 AM,39.9,30.0,68,30.12,3.0,Calm,Calm,-,N/A,,Haze,0,2012-09-21 12:51:00
7:40 AM,37.4,28.4,70,30.20,2.0,Calm,Calm,-,N/A,,Haze,0,2012-09-21 13:40:00
7:51 AM,39.0,28.9,67,30.14,2.0,Calm,Calm,-,N/A,,Haze,0,2012-09-21 13:51:00
8:51 AM,41.0,30.0,65,30.15,2.0,Calm,Calm,-,N/A,,Haze,0,2012-09-21 14:51:00
9:51 AM,48.0,33.1,56,30.16,2.0,Calm,Calm,-,N/A,,Haze,0,2012-09-21 15:51:00
10:51 AM,55.0,36.0,49,30.15,2.5,Calm,Calm,-,N/A,,Haze,0,2012-09-21 16:51:00
11:51 AM,57.9,35.1,42,30.15,2.0,South,5.8,-,N/A,,Haze,190,2012-09-21 17:51:00
12:51 PM,66.9,30.0,25,30.11,2.0,Calm,Calm,-,N/A,,Haze,0,2012-09-21 18:51:00
1:51 PM,72.0,30.0,21,30.08,2.0,Calm,Calm,-,N/A,,Haze,0,2012-09-21 19:51:00
2:51 PM,75.0,25.0,16,30.06,2.5,Calm,Calm,-,N/A,,Haze,0,2012-09-21 20:51:00
3:51 PM,78.1,27.0,15,30.04,3.0,NNW,8.1,-,N/A,,Haze,330,2012-09-21 21:51:00
4:51 PM,75.9,28.0,17,30.03,3.0,WNW,6.9,-,N/A,,Haze,290,2012-09-21 22:51:00
5:51 PM,73.0,26.1,17,30.05,4.0,WNW,5.8,-,N/A,,Haze,290,2012-09-21 23:51:00
6:51 PM,71.1,26.1,19,30.05,4.0,Calm,Calm,-,N/A,,Haze,0,2012-09-22 00:51:00
7:51 PM,61.0,30.9,32,30.08,4.0,Calm,Calm,-,N/A,,Haze,0,2012-09-22 01:51:00
8:51 PM,57.0,30.9,37,30.09,5.0,Calm,Calm,-,N/A,,Haze,0,2012-09-22 02:51:00
9:51 PM,53.1,30.9,43,30.08,5.0,Calm,Calm,-,N/A,,Haze,0,2012-09-22 03:51:00
10:51 PM,50.0,33.1,52,30.07,5.0,Calm,Calm,-,N/A,,Haze,0,2012-09-22 04:51:00
11:51 PM,46.9,30.9,54,30.07,6.0,Calm,Calm,-,N/A,,Haze,0,2012-09-22 05:51:00